HAZ2619 ZSHC-ZUTF

Flight info

Callsign HAZ2619
Flight time N/A
Altitude 30100
Route ABVIL H24 ISNIR H161 P366 H165 IPMUG W611 PEDMU W138 DTG W139 ENH V38 VINEX V158 URGEG W80 AKOPI
Aircraft A320/M-SDE3FGHIRWY/LB1

Departure

Time 2026-04-27 11:09
Airport Hangzhou Xiaoshan International Airport (ZSHC)

Arrival

Time N/A
Airport Chengdu Tianfu International Airport (ZUTF)
Time Latitude Longitude Altitude Speed Heading
2026-04-27 10:43 30.24014 120.42692 32 ft 0 kts 63°
2026-04-27 10:56 30.24014 120.42691 32 ft 2 kts 63°
2026-04-27 10:57 30.24006 120.42674 31 ft 2 kts 63°
2026-04-27 10:57 30.23999 120.42658 31 ft 2 kts 47°
2026-04-27 10:57 30.23987 120.42645 31 ft 2 kts 26°
2026-04-27 10:57 30.23971 120.42638 31 ft 2 kts 348°
2026-04-27 10:58 30.23956 120.42646 30 ft 2 kts 332°
2026-04-27 10:59 30.23961 120.42643 31 ft 3 kts 333°
2026-04-27 10:59 30.24007 120.42618 31 ft 11 kts 335°
2026-04-27 11:00 30.24202 120.42565 32 ft 17 kts 58°
2026-04-27 11:00 30.24256 120.42691 32 ft 18 kts 63°
2026-04-27 11:00 30.24319 120.42827 32 ft 20 kts 57°
2026-04-27 11:00 30.24387 120.42973 32 ft 21 kts 63°
2026-04-27 11:01 30.24456 120.43131 32 ft 23 kts 63°
2026-04-27 11:01 30.24513 120.43299 31 ft 23 kts 64°
2026-04-27 11:01 30.24437 120.43401 30 ft 19 kts 153°
2026-04-27 11:01 30.24312 120.43475 32 ft 21 kts 153°
2026-04-27 11:02 30.24226 120.43526 32 ft 22 kts 152°
2026-04-27 11:02 30.24087 120.43607 31 ft 23 kts 153°
2026-04-27 11:02 30.23955 120.43685 31 ft 18 kts 153°
2026-04-27 11:02 30.23839 120.43753 32 ft 20 kts 153°
2026-04-27 11:03 30.23713 120.43826 32 ft 21 kts 153°
2026-04-27 11:03 30.23577 120.43906 32 ft 23 kts 153°
2026-04-27 11:03 30.23439 120.43985 31 ft 18 kts 155°
2026-04-27 11:03 30.23354 120.43914 32 ft 17 kts 242°
2026-04-27 11:04 30.23305 120.43802 32 ft 15 kts 243°
2026-04-27 11:04 30.23254 120.43689 32 ft 17 kts 243°
2026-04-27 11:04 30.23196 120.43555 32 ft 20 kts 243°
2026-04-27 11:04 30.23130 120.43408 32 ft 21 kts 242°
2026-04-27 11:05 30.23061 120.43250 32 ft 23 kts 244°
2026-04-27 11:05 30.22989 120.43085 32 ft 23 kts 243°
2026-04-27 11:05 30.22920 120.42933 32 ft 21 kts 242°
2026-04-27 11:05 30.22851 120.42778 32 ft 22 kts 243°
2026-04-27 11:06 30.22780 120.42618 32 ft 22 kts 243°
2026-04-27 11:06 30.22706 120.42451 32 ft 24 kts 243°
2026-04-27 11:06 30.22632 120.42282 32 ft 21 kts 243°
2026-04-27 11:06 30.22566 120.42132 32 ft 22 kts 243°
2026-04-27 11:07 30.22493 120.41971 32 ft 23 kts 243°
2026-04-27 11:07 30.22423 120.41813 30 ft 21 kts 243°
2026-04-27 11:07 30.22367 120.41715 32 ft 11 kts 200°
2026-04-27 11:07 30.22300 120.41739 30 ft 10 kts 150°
2026-04-27 11:08 30.22241 120.41777 30 ft 10 kts 150°
2026-04-27 11:08 30.22240 120.41832 30 ft 7 kts 63°
2026-04-27 11:08 30.22299 120.41968 30 ft 50 kts 63°
2026-04-27 11:08 30.22564 120.42567 33 ft 114 kts 63°
2026-04-27 11:09 30.23007 120.43564 46 ft 162 kts 63°
2026-04-27 11:09 30.23528 120.44736 621 ft 164 kts 62°
2026-04-27 11:09 30.23995 120.45927 1250 ft 165 kts 79°
2026-04-27 11:09 30.23897 120.47263 1870 ft 169 kts 99°
2026-04-27 11:10 30.23718 120.48682 2183 ft 189 kts 95°
2026-04-27 11:10 30.23555 120.50288 2455 ft 214 kts 96°
2026-04-27 11:10 30.23381 120.52088 2822 ft 238 kts 95°
2026-04-27 11:10 30.23189 120.54087 3261 ft 260 kts 96°
2026-04-27 11:11 30.22860 120.56177 3971 ft 270 kts 111°
2026-04-27 11:11 30.21755 120.57935 4798 ft 275 kts 142°
2026-04-27 11:11 30.20092 120.59038 5666 ft 278 kts 154°
2026-04-27 11:11 30.18346 120.60034 6541 ft 281 kts 159°
2026-04-27 11:12 30.16430 120.60388 7337 ft 282 kts 187°
2026-04-27 11:12 30.14581 120.59681 8158 ft 283 kts 214°
2026-04-27 11:12 30.13216 120.58067 8990 ft 283 kts 240°
2026-04-27 11:12 30.12303 120.56047 9870 ft 285 kts 244°
2026-04-27 11:13 30.11391 120.53970 10385 ft 300 kts 244°
2026-04-27 11:13 30.10412 120.51742 10630 ft 324 kts 244°
2026-04-27 11:13 30.09338 120.49304 10834 ft 347 kts 244°
2026-04-27 11:13 30.08231 120.46802 11239 ft 359 kts 243°
2026-04-27 11:14 30.07069 120.44191 11957 ft 362 kts 243°
2026-04-27 11:14 30.05912 120.41600 12739 ft 363 kts 243°
2026-04-27 11:14 30.04756 120.39011 13513 ft 365 kts 244°
2026-04-27 11:14 30.03590 120.36402 14212 ft 366 kts 244°
2026-04-27 11:15 30.02419 120.33780 14783 ft 369 kts 244°
2026-04-27 11:15 30.01239 120.31143 15440 ft 370 kts 244°
2026-04-27 11:15 30.00057 120.28501 16057 ft 372 kts 244°
2026-04-27 11:15 29.98858 120.25846 16616 ft 375 kts 243°
2026-04-27 11:16 29.97618 120.23185 17186 ft 378 kts 243°
2026-04-27 11:16 29.96353 120.20519 17753 ft 381 kts 243°
2026-04-27 11:16 29.95071 120.17836 18278 ft 383 kts 243°
2026-04-27 11:16 29.93777 120.15130 18718 ft 387 kts 243°
2026-04-27 11:17 29.92473 120.12407 19137 ft 390 kts 243°
2026-04-27 11:17 29.91161 120.09653 19567 ft 393 kts 243°
2026-04-27 11:17 29.89846 120.06879 20001 ft 397 kts 243°
2026-04-27 11:17 29.88519 120.04076 20435 ft 400 kts 243°
2026-04-27 11:18 29.87182 120.01258 20868 ft 403 kts 243°
2026-04-27 11:18 29.85831 119.98410 21276 ft 406 kts 243°
2026-04-27 11:18 29.84301 119.95662 21684 ft 412 kts 234°
2026-04-27 11:18 29.82492 119.93088 22100 ft 415 kts 233°
2026-04-27 11:19 29.80661 119.90493 22509 ft 418 kts 233°
2026-04-27 11:19 29.78831 119.87890 22888 ft 420 kts 233°
2026-04-27 11:19 29.76985 119.85259 23247 ft 424 kts 234°
2026-04-27 11:19 29.75127 119.82616 23592 ft 427 kts 234°
2026-04-27 11:20 29.73250 119.79949 23915 ft 429 kts 234°
2026-04-27 11:20 29.71367 119.77273 24263 ft 431 kts 234°
2026-04-27 11:20 29.69457 119.74559 24588 ft 433 kts 234°
2026-04-27 11:20 29.67557 119.71861 24913 ft 435 kts 234°
2026-04-27 11:21 29.65721 119.69097 25227 ft 435 kts 239°
2026-04-27 11:21 29.64290 119.66043 25549 ft 434 kts 249°
2026-04-27 11:21 29.63361 119.62755 25850 ft 434 kts 258°
2026-04-27 11:21 29.62956 119.59324 26150 ft 434 kts 268°
2026-04-27 11:22 29.63001 119.55848 26459 ft 436 kts 272°
2026-04-27 11:22 29.63097 119.52394 26755 ft 437 kts 271°
2026-04-27 11:22 29.63186 119.48894 27041 ft 439 kts 271°
2026-04-27 11:22 29.63312 119.45380 27322 ft 440 kts 272°
2026-04-27 11:23 29.63494 119.41876 27719 ft 439 kts 273°
2026-04-27 11:23 29.63708 119.38387 28155 ft 437 kts 274°
2026-04-27 11:23 29.63903 119.34897 28585 ft 436 kts 270°
2026-04-27 11:23 29.63702 119.31428 29013 ft 435 kts 261°
2026-04-27 11:24 29.62977 119.28070 29446 ft 435 kts 252°
2026-04-27 11:24 29.61868 119.24836 29869 ft 434 kts 250°
2026-04-27 11:24 29.60736 119.21616 30013 ft 435 kts 250°
2026-04-27 11:24 29.59603 119.18389 30029 ft 436 kts 250°
2026-04-27 11:25 29.57335 119.11922 30028 ft 436 kts 250°
2026-04-27 11:25 29.55075 119.05467 30032 ft 436 kts 250°
2026-04-27 11:26 29.52813 118.99001 30032 ft 436 kts 250°
2026-04-27 11:26 29.50576 118.92533 30027 ft 435 kts 253°
2026-04-27 11:27 29.49434 118.85741 30027 ft 433 kts 263°
2026-04-27 11:27 29.48670 118.78893 30031 ft 433 kts 263°
2026-04-27 11:28 29.47892 118.72042 30031 ft 433 kts 263°
2026-04-27 11:28 29.47112 118.65154 30028 ft 432 kts 263°
2026-04-27 11:29 29.46334 118.58312 30025 ft 432 kts 263°
2026-04-27 11:29 29.45512 118.51480 30024 ft 433 kts 259°
2026-04-27 11:30 29.43557 118.44937 30030 ft 435 kts 250°
2026-04-27 11:30 29.41272 118.38512 30027 ft 435 kts 250°
2026-04-27 11:31 29.38988 118.32095 30023 ft 435 kts 250°
2026-04-27 11:31 29.36705 118.25672 30022 ft 435 kts 250°
2026-04-27 11:32 29.34416 118.19253 30022 ft 435 kts 250°
2026-04-27 11:32 29.32122 118.12841 30019 ft 435 kts 250°
2026-04-27 11:33 29.29823 118.06421 30021 ft 435 kts 250°
2026-04-27 11:33 29.27525 118.00009 30019 ft 435 kts 250°
2026-04-27 11:34 29.25224 117.93604 30017 ft 435 kts 250°
2026-04-27 11:34 29.22919 117.87203 30016 ft 435 kts 250°
2026-04-27 11:35 29.20981 117.81834 30011 ft 435 kts 250°
2026-04-27 11:35 29.18676 117.75427 30008 ft 436 kts 250°
2026-04-27 11:36 29.16364 117.69008 30003 ft 436 kts 250°
2026-04-27 11:36 29.14036 117.62598 30013 ft 436 kts 250°
2026-04-27 11:37 29.11706 117.56191 30008 ft 436 kts 249°
2026-04-27 11:37 29.09370 117.49784 30000 ft 437 kts 249°
2026-04-27 11:38 29.07059 117.43369 29999 ft 436 kts 250°
2026-04-27 11:38 29.04776 117.36942 29993 ft 437 kts 250°
2026-04-27 11:39 29.02483 117.30511 29995 ft 437 kts 250°
2026-04-27 11:39 29.00180 117.24093 29991 ft 437 kts 250°
2026-04-27 11:40 28.97902 117.17649 29992 ft 437 kts 250°
2026-04-27 11:40 28.95616 117.11159 30003 ft 438 kts 250°
2026-04-27 11:41 28.93335 117.04700 30000 ft 439 kts 250°
2026-04-27 11:41 28.91053 116.98271 29997 ft 439 kts 250°
2026-04-27 11:42 28.88740 116.91791 29990 ft 439 kts 249°
2026-04-27 11:42 28.86436 116.85334 29987 ft 439 kts 249°
2026-04-27 11:43 28.84130 116.78891 29972 ft 439 kts 249°
2026-04-27 11:43 28.81817 116.72436 29979 ft 440 kts 249°
2026-04-27 11:44 28.79505 116.65977 29978 ft 440 kts 249°
2026-04-27 11:44 28.77188 116.59513 29975 ft 441 kts 249°
2026-04-27 11:45 28.75255 116.54128 29980 ft 441 kts 249°
2026-04-27 11:45 28.72532 116.46575 29976 ft 441 kts 249°
2026-04-27 11:46 28.70196 116.40112 29982 ft 441 kts 249°
2026-04-27 11:46 28.67860 116.33644 29981 ft 441 kts 249°
2026-04-27 11:47 28.65519 116.27178 29978 ft 442 kts 249°
2026-04-27 11:47 28.63177 116.20715 29969 ft 442 kts 249°
2026-04-27 11:48 28.60807 116.14211 29971 ft 442 kts 249°
2026-04-27 11:48 28.58445 116.07748 29974 ft 442 kts 249°
2026-04-27 11:49 28.56089 116.01278 29969 ft 443 kts 249°
2026-04-27 11:49 28.53747 115.94806 29969 ft 442 kts 251°
2026-04-27 11:50 28.52405 115.88004 29969 ft 441 kts 261°
2026-04-27 11:50 28.51361 115.81131 29962 ft 441 kts 261°
2026-04-27 11:51 28.50296 115.74257 29966 ft 442 kts 261°
2026-04-27 11:52 28.48696 115.63941 29968 ft 442 kts 261°
2026-04-27 11:52 28.47691 115.57050 29967 ft 442 kts 262°
2026-04-27 11:53 28.46765 115.50135 29969 ft 442 kts 262°
2026-04-27 11:53 28.45834 115.43230 29966 ft 442 kts 262°
2026-04-27 11:54 28.44866 115.36327 29965 ft 443 kts 261°
2026-04-27 11:54 28.43887 115.29421 29968 ft 443 kts 261°
2026-04-27 11:55 28.42915 115.22522 29972 ft 443 kts 262°
2026-04-27 11:55 28.41942 115.15616 29979 ft 443 kts 261°
2026-04-27 11:56 28.40953 115.08670 29979 ft 442 kts 261°
2026-04-27 11:56 28.39970 115.01773 29980 ft 442 kts 261°
2026-04-27 11:57 28.38979 114.94874 29976 ft 442 kts 261°
2026-04-27 11:57 28.37987 114.87976 29977 ft 442 kts 261°
2026-04-27 11:58 28.36994 114.81083 29973 ft 442 kts 261°
2026-04-27 11:58 28.36005 114.74193 29981 ft 442 kts 261°
2026-04-27 11:59 28.34998 114.67298 29980 ft 443 kts 261°
2026-04-27 11:59 28.33981 114.60411 29978 ft 443 kts 261°
2026-04-27 12:00 28.32968 114.53512 29987 ft 443 kts 261°
2026-04-27 12:00 28.31953 114.46573 29987 ft 443 kts 261°
2026-04-27 12:01 28.30967 114.39866 29989 ft 443 kts 261°
2026-04-27 12:01 28.30185 114.34586 30013 ft 442 kts 261°
2026-04-27 12:03 28.29755 114.31754 29891 ft 431 kts 261°
2026-04-27 12:03 28.29240 114.28462 28304 ft 427 kts 260°
2026-04-27 12:03 28.28693 114.25103 26824 ft 438 kts 260°
2026-04-27 12:04 28.28113 114.21730 26113 ft 431 kts 259°
2026-04-27 12:04 28.27516 114.18480 25991 ft 410 kts 258°
2026-04-27 12:04 28.26907 114.15394 25751 ft 395 kts 257°